Location: Spring Creek
(38.2870°N, 100.2160°W)
Time: 07:22:54
(UTC+00:00)

CARTOSAT-1 - Pass Details

Date: 08 May 2021
Orbit: 616 x 618 km, 97.8° (Epoch: 21 June)

Event Time Altitude Azimuth Distance (km) Brightness Sun altitude
Exits shadow 03:56:04 57° 69° (ENE) 733 3.7 -22.9°
Drops below altitude 10° 04:00:14 10° 357° (N) 1,989 6.8 -23.4°
Sets 04:02:27 0° 353° (N) 2,898 7.9 -23.7°
